Time,TemperatureF,DewpointF,PressureIn,WindDirection,WindDirectionDegrees,WindSpeedMPH,WindSpeedGustMPH,Humidity,HourlyPrecipIn,Conditions,Clouds,dailyrainin,SoftwareType,DateUTC
2013-01-18 00:00:00,25.3,11.8,30.04,NNE,23,3.8,7.0,56,0.00,CLR,,0.00,WeatherDisplay:10.37,2013-01-18 05:00:00,
2013-01-18 00:01:00,25.3,11.4,30.04,NNE,22,8.4,13.0,55,0.00,CLR,,0.00,WeatherDisplay:10.37,2013-01-18 05:01:00,
2013-01-18 00:02:00,25.3,11.0,30.04,NE,51,7.6,11.5,54,0.00,CLR,,0.00,WeatherDisplay:10.37,2013-01-18 05:02:00,
2013-01-18 00:07:00,25.3,11.8,30.03,NE,36,4.2,5.8,56,0.00,CLR,,0.00,WeatherDisplay:10.37,2013-01-18 05:07:00,
2013-01-18 00:13:00,25.3,11.8,30.02,NE,51,4.9,5.8,56,0.00,CLR,,0.00,WeatherDisplay:10.37,2013-01-18 05:13:00,
2013-01-18 00:18:00,25.1,11.6,30.01,NE,51,8.5,12.0,56,0.00,CLR,,0.00,WeatherDisplay:10.37,2013-01-18 05:18:00,
2013-01-18 00:23:00,25.1,11.2,30.00,North,5,5.1,10.4,55,0.00,CLR,,0.00,WeatherDisplay:10.37,2013-01-18 05:23:00,
2013-01-18 00:28:00,25.0,11.5,30.01,North,355,4.3,5.0,56,0.00,CLR,,0.00,WeatherDisplay:10.37,2013-01-18 05:28:00,
2013-01-18 00:33:00,25.0,11.5,30.00,NNW,333,4.1,8.1,56,0.00,CLR,,0.00,WeatherDisplay:10.37,2013-01-18 05:33:00,
2013-01-18 00:38:00,24.8,11.3,30.00,NNE,22,5.6,9.2,56,0.00,CLR,,0.00,WeatherDisplay:10.37,2013-01-18 05:38:00,
2013-01-18 00:43:00,24.8,10.9,30.01,NNE,25,6.0,10.4,55,0.00,CLR,,0.00,WeatherDisplay:10.37,2013-01-18 05:43:00,
2013-01-18 00:48:00,24.8,11.3,30.01,North,11,3.7,6.9,56,0.00,CLR,,0.00,WeatherDisplay:10.37,2013-01-18 05:48:00,
2013-01-18 00:54:00,24.7,10.8,29.99,NE,53,6.3,11.5,55,0.00,CLR,,0.00,WeatherDisplay:10.37,2013-01-18 05:54:00,
2013-01-18 00:59:00,24.5,11.0,30.00,NNE,32,7.0,13.0,56,0.00,CLR,,0.00,WeatherDisplay:10.37,2013-01-18 05:59:00,
2013-01-18 01:04:00,24.4,10.9,29.99,North,355,6.9,13.8,56,0.00,CLR,,0.00,WeatherDisplay:10.37,2013-01-18 06:04:00,
2013-01-18 01:09:00,24.4,10.9,30.01,North,355,5.7,10.4,56,0.00,CLR,,0.00,WeatherDisplay:10.37,2013-01-18 06:09:00,
2013-01-18 01:15:00,24.4,10.5,30.02,NNW,336,7.4,10.4,55,0.00,CLR,,0.00,WeatherDisplay:10.37,2013-01-18 06:15:00,
2013-01-18 01:20:00,24.2,10.3,30.02,NNW,344,8.2,12.7,55,0.00,CLR,,0.00,WeatherDisplay:10.37,2013-01-18 06:20:00,
2013-01-18 01:25:00,24.2,10.3,30.03,NNE,21,4.9,12.7,55,0.00,CLR,,0.00,WeatherDisplay:10.37,2013-01-18 06:25:00,
2013-01-18 01:30:00,24.2,10.7,30.04,NE,40,4.1,6.0,56,0.00,CLR,,0.00,WeatherDisplay:10.37,2013-01-18 06:30:00,
2013-01-18 01:36:00,24.2,10.7,30.03,North,9,6.0,8.0,56,0.00,CLR,,0.00,WeatherDisplay:10.37,2013-01-18 06:36:00,
2013-01-18 01:41:00,24.2,11.1,30.02,North,360,4.3,5.8,57,0.00,CLR,,0.00,WeatherDisplay:10.37,2013-01-18 06:41:00,
2013-01-18 01:46:00,24.1,11.4,30.01,North,355,6.5,10.4,58,0.00,CLR,,0.00,WeatherDisplay:10.37,2013-01-18 06:46:00,
2013-01-18 01:51:00,24.1,11.4,30.04,NNE,17,3.0,4.6,58,0.00,CLR,,0.00,WeatherDisplay:10.37,2013-01-18 06:51:00,
2013-01-18 01:56:00,24.1,11.4,30.05,NNE,30,1.6,3.5,58,0.00,CLR,,0.00,WeatherDisplay:10.37,2013-01-18 06:56:00,
2013-01-18 02:02:00,24.1,11.8,30.03,NNE,21,2.9,4.0,59,0.00,CLR,,0.00,WeatherDisplay:10.37,2013-01-18 07:02:00,
2013-01-18 02:07:00,24.1,11.8,30.03,NE,36,1.6,3.5,59,0.00,CLR,,0.00,WeatherDisplay:10.37,2013-01-18 07:07:00,
2013-01-18 02:12:00,24.1,11.8,30.05,NNE,12,4.2,5.8,59,0.00,CLR,,0.00,WeatherDisplay:10.37,2013-01-18 07:12:00,
2013-01-18 02:17:00,24.1,12.6,30.05,North,9,1.9,5.0,61,0.00,CLR,,0.00,WeatherDisplay:10.37,2013-01-18 07:17:00,
2013-01-18 02:23:00,23.9,11.6,30.04,North,350,3.8,6.9,59,0.00,CLR,,0.00,WeatherDisplay:10.37,2013-01-18 07:23:00,
2013-01-18 02:28:00,23.8,11.5,30.05,NE,42,10.6,12.7,59,0.00,CLR,,0.00,WeatherDisplay:10.37,2013-01-18 07:28:00,
2013-01-18 02:33:00,23.6,11.0,30.05,NE,40,4.6,11.5,58,0.00,CLR,,0.00,WeatherDisplay:10.37,2013-01-18 07:33:00,
2013-01-18 02:38:00,23.6,11.0,30.06,North,5,3.7,6.0,58,0.00,CLR,,0.00,WeatherDisplay:10.37,2013-01-18 07:38:00,
2013-01-18 02:43:00,23.6,11.7,30.05,North,360,1.3,3.5,60,0.00,CLR,,0.00,WeatherDisplay:10.37,2013-01-18 07:43:00,
2013-01-18 02:48:00,23.6,11.4,30.05,North,5,4.9,9.2,59,0.00,CLR,,0.00,WeatherDisplay:10.37,2013-01-18 07:48:00,
2013-01-18 02:54:00,23.5,11.3,30.05,North,5,3.5,8.1,59,0.00,CLR,,0.00,WeatherDisplay:10.37,2013-01-18 07:54:00,
2013-01-18 02:59:00,23.5,10.9,30.05,ENE,63,5.4,11.5,58,0.00,CLR,,0.00,WeatherDisplay:10.37,2013-01-18 07:59:00,
2013-01-18 03:04:00,23.3,11.1,30.05,NNE,17,3.4,4.6,59,0.00,CLR,,0.00,WeatherDisplay:10.37,2013-01-18 08:04:00,
2013-01-18 03:09:00,23.3,10.7,30.05,NNE,23,3.9,5.8,58,0.00,CLR,,0.00,WeatherDisplay:10.37,2013-01-18 08:09:00,
2013-01-18 03:15:00,23.3,10.7,30.05,NNE,26,5.8,9.2,58,0.00,CLR,,0.00,WeatherDisplay:10.37,2013-01-18 08:15:00,
2013-01-18 03:20:00,23.2,10.2,30.06,NNE,24,6.1,13.8,57,0.00,CLR,,0.00,WeatherDisplay:10.37,2013-01-18 08:20:00,
2013-01-18 03:25:00,23.2,10.2,30.06,NNE,24,6.8,10.4,57,0.00,CLR,,0.00,WeatherDisplay:10.37,2013-01-18 08:25:00,
2013-01-18 03:30:00,23.0,10.0,30.05,NNE,13,7.5,9.2,57,0.00,CLR,,0.00,WeatherDisplay:10.37,2013-01-18 08:30:00,
2013-01-18 03:35:00,23.0,10.4,30.07,North,5,5.2,11.5,58,0.00,CLR,,0.00,WeatherDisplay:10.37,2013-01-18 08:35:00,
2013-01-18 03:40:00,23.0,10.4,30.06,ENE,65,5.0,6.9,58,0.00,CLR,,0.00,WeatherDisplay:10.37,2013-01-18 08:40:00,
2013-01-18 03:46:00,22.9,10.7,30.06,NNE,16,1.9,3.0,59,0.00,CLR,,0.00,WeatherDisplay:10.37,2013-01-18 08:46:00,
2013-01-18 03:51:00,22.9,10.7,30.07,NNE,15,6.5,10.4,59,0.00,CLR,,0.00,WeatherDisplay:10.37,2013-01-18 08:51:00,
2013-01-18 03:56:00,22.9,10.3,30.06,NNE,12,5.8,9.2,58,0.00,CLR,,0.00,WeatherDisplay:10.37,2013-01-18 08:56:00,
2013-01-18 04:01:00,22.5,9.9,30.06,North,9,5.9,9.2,58,0.00,CLR,,0.00,WeatherDisplay:10.37,2013-01-18 09:01:00,
2013-01-18 04:07:00,22.2,9.3,30.07,NNE,30,7.0,16.1,57,0.00,CLR,,0.00,WeatherDisplay:10.37,2013-01-18 09:07:00,
2013-01-18 04:12:00,22.1,9.2,30.07,NNE,24,5.3,8.1,57,0.00,CLR,,0.00,WeatherDisplay:10.37,2013-01-18 09:12:00,
2013-01-18 04:17:00,21.8,9.3,30.07,North,360,3.1,5.8,58,0.00,CLR,,0.00,WeatherDisplay:10.37,2013-01-18 09:17:00,
2013-01-18 04:22:00,21.6,9.1,30.07,NNE,16,2.7,3.5,58,0.00,CLR,,0.00,WeatherDisplay:10.37,2013-01-18 09:22:00,
2013-01-18 04:28:00,21.4,9.3,30.08,NNE,28,3.0,6.9,59,0.00,CLR,,0.00,WeatherDisplay:10.37,2013-01-18 09:28:00,
2013-01-18 04:33:00,21.3,9.2,30.08,North,5,1.2,2.3,59,0.00,CLR,,0.00,WeatherDisplay:10.37,2013-01-18 09:33:00,
2013-01-18 04:38:00,21.1,9.0,30.08,North,350,5.1,8.0,59,0.00,CLR,,0.00,WeatherDisplay:10.37,2013-01-18 09:38:00,
2013-01-18 04:43:00,21.1,9.0,30.10,North,9,3.0,8.1,59,0.00,CLR,,0.00,WeatherDisplay:10.37,2013-01-18 09:43:00,
2013-01-18 04:48:00,21.1,9.4,30.10,NNW,344,4.0,4.6,60,0.00,CLR,,0.00,WeatherDisplay:10.37,2013-01-18 09:48:00,
2013-01-18 04:53:00,21.0,9.3,30.10,North,5,5.1,10.4,60,0.00,CLR,,0.00,WeatherDisplay:10.37,2013-01-18 09:53:00,
2013-01-18 04:58:00,21.0,9.3,30.11,North,5,4.0,6.9,60,0.00,CLR,,0.00,WeatherDisplay:10.37,2013-01-18 09:58:00,
2013-01-18 05:04:00,20.8,9.1,30.11,North,355,3.3,10.4,60,0.00,CLR,,0.00,WeatherDisplay:10.37,2013-01-18 10:04:00,
2013-01-18 05:09:00,20.6,8.9,30.12,North,5,3.3,6.9,60,0.00,CLR,,0.00,WeatherDisplay:10.37,2013-01-18 10:09:00,
2013-01-18 05:14:00,20.5,9.2,30.12,NNW,339,6.8,13.8,61,0.00,CLR,,0.00,WeatherDisplay:10.37,2013-01-18 10:14:00,
2013-01-18 05:20:00,20.5,9.2,30.13,North,355,4.4,5.8,61,0.00,CLR,,0.00,WeatherDisplay:10.37,2013-01-18 10:20:00,
2013-01-18 05:25:00,20.3,9.3,30.13,NE,35,4.5,6.0,62,0.00,CLR,,0.00,WeatherDisplay:10.37,2013-01-18 10:25:00,
2013-01-18 05:30:00,20.3,9.3,30.13,North,5,7.7,13.0,62,0.00,CLR,,0.00,WeatherDisplay:10.37,2013-01-18 10:30:00,
2013-01-18 05:35:00,20.2,9.2,30.14,ENE,63,4.2,9.2,62,0.00,CLR,,0.00,WeatherDisplay:10.37,2013-01-18 10:35:00,
2013-01-18 05:40:00,20.0,9.4,30.14,NNE,23,8.4,11.5,63,0.00,CLR,,0.00,WeatherDisplay:10.37,2013-01-18 10:40:00,
2013-01-18 05:46:00,19.9,9.0,30.15,NE,39,1.6,3.5,62,0.00,CLR,,0.00,WeatherDisplay:10.37,2013-01-18 10:46:00,
2013-01-18 05:51:00,19.7,8.8,30.15,NNE,19,7.2,12.0,62,0.00,CLR,,0.00,WeatherDisplay:10.37,2013-01-18 10:51:00,
2013-01-18 05:56:00,19.5,8.6,30.15,North,360,6.5,11.5,62,0.00,CLR,,0.00,WeatherDisplay:10.37,2013-01-18 10:56:00,
2013-01-18 06:01:00,19.4,8.5,30.15,North,5,5.2,9.2,62,0.00,CLR,,0.00,WeatherDisplay:10.37,2013-01-18 11:01:00,
2013-01-18 06:07:00,19.4,8.1,30.16,North,355,5.4,9.2,61,0.00,CLR,,0.00,WeatherDisplay:10.37,2013-01-18 11:07:00,
2013-01-18 06:12:00,19.2,8.3,30.17,NNE,30,3.0,5.0,62,0.00,CLR,,0.00,WeatherDisplay:10.37,2013-01-18 11:12:00,
2013-01-18 06:17:00,19.2,8.3,30.18,NE,41,5.7,10.4,62,0.00,CLR,,0.00,WeatherDisplay:10.37,2013-01-18 11:17:00,
2013-01-18 06:22:00,19.1,8.2,30.18,NNW,337,6.2,10.4,62,0.00,CLR,,0.00,WeatherDisplay:10.37,2013-01-18 11:22:00,
2013-01-18 06:27:00,19.1,8.2,30.18,North,5,6.6,11.5,62,0.00,CLR,,0.00,WeatherDisplay:10.37,2013-01-18 11:27:00,
2013-01-18 06:33:00,18.9,8.0,30.19,NNW,331,3.9,5.0,62,0.00,CLR,,0.00,WeatherDisplay:10.37,2013-01-18 11:33:00,
2013-01-18 06:38:00,18.8,7.9,30.19,North,355,6.0,11.5,62,0.00,CLR,,0.00,WeatherDisplay:10.37,2013-01-18 11:38:00,
2013-01-18 06:43:00,18.8,7.9,30.20,NNE,24,4.3,5.0,62,0.00,CLR,,0.00,WeatherDisplay:10.37,2013-01-18 11:43:00,
2013-01-18 06:49:00,18.6,7.4,30.21,NNW,346,8.6,13.8,61,0.00,CLR,,0.00,WeatherDisplay:10.37,2013-01-18 11:49:00,
2013-01-18 06:54:00,18.6,7.4,30.21,NNE,32,4.4,10.4,61,0.00,CLR,,0.00,WeatherDisplay:10.37,2013-01-18 11:54:00,
2013-01-18 06:59:00,18.4,7.2,30.22,NNE,12,8.9,16.1,61,0.00,CLR,,0.00,WeatherDisplay:10.37,2013-01-18 11:59:00,
2013-01-18 07:04:00,18.3,7.1,30.23,NNE,20,3.5,6.0,61,0.00,CLR,,0.00,WeatherDisplay:10.37,2013-01-18 12:04:00,
2013-01-18 07:09:00,18.3,7.1,30.23,North,9,6.5,12.7,61,0.00,CLR,,0.00,WeatherDisplay:10.37,2013-01-18 12:09:00,
2013-01-18 07:15:00,18.1,7.3,30.24,NE,43,3.3,5.8,62,0.00,CLR,,0.00,WeatherDisplay:10.37,2013-01-18 12:15:00,
2013-01-18 07:20:00,18.0,6.8,30.24,North,11,5.8,10.4,61,0.00,CLR,,0.00,WeatherDisplay:10.37,2013-01-18 12:20:00,
2013-01-18 07:25:00,17.8,6.6,30.24,North,355,6.6,11.5,61,0.00,CLR,,0.00,WeatherDisplay:10.37,2013-01-18 12:25:00,
2013-01-18 07:30:00,17.8,7.0,30.25,NNE,17,1.6,4.6,62,0.00,CLR,,0.00,WeatherDisplay:10.37,2013-01-18 12:30:00,
2013-01-18 07:36:00,17.7,6.9,30.25,North,5,3.8,6.0,62,0.00,CLR,,0.00,WeatherDisplay:10.37,2013-01-18 12:36:00,
2013-01-18 07:41:00,17.7,6.9,30.26,NNE,19,3.1,4.6,62,0.00,CLR,,0.00,WeatherDisplay:10.37,2013-01-18 12:41:00,
2013-01-18 07:46:00,17.5,6.7,30.26,NNE,15,3.0,9.2,62,0.00,CLR,,0.00,WeatherDisplay:10.37,2013-01-18 12:46:00,
2013-01-18 07:51:00,17.5,7.0,30.26,NE,47,1.7,3.5,63,0.00,CLR,,0.00,WeatherDisplay:10.37,2013-01-18 12:51:00,
2013-01-18 07:56:00,17.5,7.0,30.27,NNW,338,0.9,1.1,63,0.00,CLR,,0.00,WeatherDisplay:10.37,2013-01-18 12:56:00,
2013-01-18 08:01:00,17.7,7.2,30.27,NNE,15,3.3,4.6,63,0.00,CLR,,0.00,WeatherDisplay:10.37,2013-01-18 13:01:00,
2013-01-18 08:07:00,17.7,6.9,30.27,NNE,14,1.5,3.5,62,0.00,CLR,,0.00,WeatherDisplay:10.37,2013-01-18 13:07:00,
2013-01-18 08:12:00,17.8,7.0,30.28,NNW,334,3.3,4.0,62,0.00,CLR,,0.00,WeatherDisplay:10.37,2013-01-18 13:12:00,
2013-01-18 08:17:00,18.1,6.9,30.28,NE,48,1.6,3.5,61,0.00,CLR,,0.00,WeatherDisplay:10.37,2013-01-18 13:17:00,
2013-01-18 08:22:00,18.3,6.7,30.29,North,355,2.5,4.6,60,0.00,CLR,,0.00,WeatherDisplay:10.37,2013-01-18 13:22:00,
2013-01-18 08:27:00,18.4,6.1,30.29,North,5,7.1,10.4,58,0.00,CLR,,0.00,WeatherDisplay:10.37,2013-01-18 13:27:00,
2013-01-18 08:33:00,18.6,5.9,30.30,North,355,2.3,4.6,57,0.00,CLR,,0.00,WeatherDisplay:10.37,2013-01-18 13:33:00,
2013-01-18 08:38:00,18.6,5.1,30.30,NW,325,4.6,11.5,55,0.00,CLR,,0.00,WeatherDisplay:10.37,2013-01-18 13:38:00,
2013-01-18 08:43:00,18.9,5.4,30.30,NNE,26,6.2,6.9,55,0.00,CLR,,0.00,WeatherDisplay:10.37,2013-01-18 13:43:00,
2013-01-18 08:48:00,19.1,5.2,30.30,NNE,26,4.9,9.2,54,0.00,CLR,,0.00,WeatherDisplay:10.37,2013-01-18 13:48:00,
2013-01-18 08:53:00,19.1,5.2,30.30,NW,325,4.8,11.5,54,0.00,CLR,,0.00,WeatherDisplay:10.37,2013-01-18 13:53:00,
2013-01-18 08:58:00,19.2,4.0,30.31,North,5,8.0,8.0,51,0.00,CLR,,0.00,WeatherDisplay:10.37,2013-01-18 13:58:00,
2013-01-18 09:04:00,19.2,4.0,30.31,NNE,31,5.6,9.2,51,0.00,CLR,,0.00,WeatherDisplay:10.37,2013-01-18 14:04:00,
2013-01-18 09:09:00,19.2,1.8,30.31,NNE,19,6.2,11.5,46,0.00,CLR,,0.00,WeatherDisplay:10.37,2013-01-18 14:09:00,
2013-01-18 09:14:00,19.2,2.2,30.32,NNE,31,3.1,4.0,47,0.00,CLR,,0.00,WeatherDisplay:10.37,2013-01-18 14:14:00,
2013-01-18 09:19:00,19.4,1.5,30.32,NNW,333,7.4,9.2,45,0.00,CLR,,0.00,WeatherDisplay:10.37,2013-01-18 14:19:00,
2013-01-18 09:25:00,19.5,1.1,30.33,NNW,336,5.2,11.5,44,0.00,CLR,,0.00,WeatherDisplay:10.37,2013-01-18 14:25:00,
2013-01-18 09:30:00,19.4,0.5,30.33,NNE,22,4.4,9.2,43,0.00,CLR,,0.00,WeatherDisplay:10.37,2013-01-18 14:30:00,
2013-01-18 09:35:00,19.5,0.6,30.34,North,360,6.1,10.4,43,0.00,CLR,,0.00,WeatherDisplay:10.37,2013-01-18 14:35:00,
2013-01-18 09:40:00,19.5,-0.4,30.34,North,360,9.8,21.9,41,0.00,CLR,,0.00,WeatherDisplay:10.37,2013-01-18 14:40:00,
2013-01-18 09:45:00,19.7,-0.2,30.34,NNE,12,9.0,11.5,41,0.00,CLR,,0.00,WeatherDisplay:10.37,2013-01-18 14:45:00,
2013-01-18 09:50:00,19.7,-0.2,30.34,NE,47,9.3,12.7,41,0.00,CLR,,0.00,WeatherDisplay:10.37,2013-01-18 14:50:00,
2013-01-18 09:56:00,19.9,-0.1,30.35,NNW,330,5.1,6.9,41,0.00,CLR,,0.00,WeatherDisplay:10.37,2013-01-18 14:56:00,
2013-01-18 10:01:00,20.2,0.7,30.35,NNW,344,6.9,10.4,42,0.00,CLR,,0.00,WeatherDisplay:10.37,2013-01-18 15:01:00,
2013-01-18 10:06:00,20.2,-0.3,30.35,NW,315,7.8,11.5,40,0.00,CLR,,0.00,WeatherDisplay:10.37,2013-01-18 15:06:00,
2013-01-18 10:11:00,20.5,0.5,30.35,NW,317,3.5,8.1,41,0.00,CLR,,0.00,WeatherDisplay:10.37,2013-01-18 15:11:00,
2013-01-18 10:16:00,20.6,0.1,30.35,North,5,3.6,5.8,40,0.00,CLR,,0.00,WeatherDisplay:10.37,2013-01-18 15:16:00,
2013-01-18 10:22:00,21.0,0.4,30.35,NW,323,6.0,11.5,40,0.00,CLR,,0.00,WeatherDisplay:10.37,2013-01-18 15:22:00,
2013-01-18 10:27:00,21.1,0.0,30.35,North,351,7.7,11.5,39,0.00,CLR,,0.00,WeatherDisplay:10.37,2013-01-18 15:27:00,
2013-01-18 10:32:00,21.3,0.1,30.35,NW,315,6.4,11.5,39,0.00,CLR,,0.00,WeatherDisplay:10.37,2013-01-18 15:32:00,
2013-01-18 10:37:00,21.4,0.2,30.35,NW,311,3.8,4.6,39,0.00,CLR,,0.00,WeatherDisplay:10.37,2013-01-18 15:37:00,
2013-01-18 10:43:00,21.6,0.4,30.35,North,355,8.2,13.8,39,0.00,CLR,,0.00,WeatherDisplay:10.37,2013-01-18 15:43:00,
2013-01-18 10:48:00,21.4,0.2,30.36,NW,314,3.2,8.1,39,0.00,CLR,,0.00,WeatherDisplay:10.37,2013-01-18 15:48:00,
2013-01-18 10:53:00,21.6,-1.3,30.36,NNW,333,5.6,10.4,36,0.00,CLR,,0.00,WeatherDisplay:10.37,2013-01-18 15:53:00,
2013-01-18 10:58:00,21.8,0.0,30.35,North,5,8.3,10.4,38,0.00,CLR,,0.00,WeatherDisplay:10.37,2013-01-18 15:58:00,
2013-01-18 11:04:00,21.9,1.2,30.36,North,355,5.8,8.1,40,0.00,CLR,,0.00,WeatherDisplay:10.37,2013-01-18 16:04:00,
2013-01-18 11:09:00,21.9,0.7,30.35,North,360,7.1,14.0,39,0.00,CLR,,0.00,WeatherDisplay:10.37,2013-01-18 16:09:00,
2013-01-18 11:14:00,21.8,0.0,30.35,North,350,4.1,10.4,38,0.00,CLR,,0.00,WeatherDisplay:10.37,2013-01-18 16:14:00,
2013-01-18 11:20:00,21.9,0.7,30.35,NW,322,2.4,6.9,39,0.00,CLR,,0.00,WeatherDisplay:10.37,2013-01-18 16:20:00,
2013-01-18 11:25:00,22.4,2.2,30.35,NNW,345,6.7,11.5,41,0.00,CLR,,0.00,WeatherDisplay:10.37,2013-01-18 16:25:00,
2013-01-18 11:30:00,22.4,1.1,30.35,NNW,348,6.7,11.5,39,0.00,CLR,,0.00,WeatherDisplay:10.37,2013-01-18 16:30:00,
2013-01-18 11:35:00,22.2,0.4,30.34,North,355,8.7,11.5,38,0.00,CLR,,0.00,WeatherDisplay:10.37,2013-01-18 16:35:00,
2013-01-18 11:40:00,22.4,2.2,30.34,WNW,282,7.5,12.0,41,0.00,CLR,,0.00,WeatherDisplay:10.37,2013-01-18 16:40:00,
2013-01-18 11:46:00,22.5,1.8,30.34,NNW,340,2.6,9.2,40,0.00,CLR,,0.00,WeatherDisplay:10.37,2013-01-18 16:46:00,
2013-01-18 11:51:00,22.5,1.2,30.34,North,360,6.8,11.5,39,0.00,CLR,,0.00,WeatherDisplay:10.37,2013-01-18 16:51:00,
2013-01-18 11:56:00,22.7,1.4,30.33,NNW,343,2.9,5.8,39,0.00,CLR,,0.00,WeatherDisplay:10.37,2013-01-18 16:56:00,
2013-01-18 12:01:00,23.0,1.7,30.33,NW,309,3.4,7.0,39,0.00,CLR,,0.00,WeatherDisplay:10.37,2013-01-18 17:01:00,
2013-01-18 12:06:00,23.3,3.0,30.33,North,9,2.8,6.9,41,0.00,CLR,,0.00,WeatherDisplay:10.37,2013-01-18 17:06:00,
2013-01-18 12:11:00,23.2,1.3,30.33,NNE,22,5.3,10.4,38,0.00,CLR,,0.00,WeatherDisplay:10.37,2013-01-18 17:11:00,
2013-01-18 12:17:00,23.3,2.0,30.32,West,268,5.4,8.1,39,0.00,CLR,,0.00,WeatherDisplay:10.37,2013-01-18 17:17:00,
2013-01-18 12:22:00,24.1,3.8,30.33,NW,324,3.7,10.4,41,0.00,CLR,,0.00,WeatherDisplay:10.37,2013-01-18 17:22:00,
2013-01-18 12:27:00,24.2,2.8,30.34,NNW,329,4.4,10.4,39,0.00,CLR,,0.00,WeatherDisplay:10.37,2013-01-18 17:27:00,
2013-01-18 12:32:00,24.5,4.1,30.34,NNW,348,2.7,6.0,41,0.00,CLR,,0.00,WeatherDisplay:10.37,2013-01-18 17:32:00,
2013-01-18 12:37:00,25.0,3.5,30.34,WNW,295,3.1,10.4,39,0.00,CLR,,0.00,WeatherDisplay:10.37,2013-01-18 17:37:00,
2013-01-18 12:43:00,25.7,4.7,30.34,NW,323,2.9,6.0,40,0.00,CLR,,0.00,WeatherDisplay:10.37,2013-01-18 17:43:00,
2013-01-18 12:48:00,25.7,4.7,30.34,NNW,341,3.2,5.8,40,0.00,CLR,,0.00,WeatherDisplay:10.37,2013-01-18 17:48:00,
2013-01-18 12:53:00,25.4,3.3,30.34,NNE,24,5.0,10.4,38,0.00,CLR,,0.00,WeatherDisplay:10.37,2013-01-18 17:53:00,
2013-01-18 12:58:00,25.0,4.6,30.34,WNW,288,5.4,11.5,41,0.00,CLR,,0.00,WeatherDisplay:10.37,2013-01-18 17:58:00,
2013-01-18 13:04:00,25.4,3.3,30.34,West,272,6.4,9.2,38,0.00,CLR,,0.00,WeatherDisplay:10.37,2013-01-18 18:04:00,
2013-01-18 13:09:00,25.6,3.5,30.33,NNW,334,7.1,12.7,38,0.00,CLR,,0.00,WeatherDisplay:10.37,2013-01-18 18:09:00,
2013-01-18 13:14:00,25.6,3.5,30.34,WNW,296,6.7,10.4,38,0.00,CLR,,0.00,WeatherDisplay:10.37,2013-01-18 18:14:00,
2013-01-18 13:19:00,25.7,4.1,30.34,WNW,289,2.9,5.8,39,0.00,CLR,,0.00,WeatherDisplay:10.37,2013-01-18 18:19:00,
2013-01-18 13:24:00,25.7,3.6,30.34,NW,316,5.3,11.5,38,0.00,CLR,,0.00,WeatherDisplay:10.37,2013-01-18 18:24:00,
2013-01-18 13:30:00,25.4,3.3,30.34,WNW,288,5.4,11.5,38,0.00,CLR,,0.00,WeatherDisplay:10.37,2013-01-18 18:30:00,
2013-01-18 13:35:00,25.4,4.4,30.34,NW,306,5.2,6.9,40,0.00,CLR,,0.00,WeatherDisplay:10.37,2013-01-18 18:35:00,
2013-01-18 13:40:00,25.7,4.1,30.35,NW,323,4.3,5.0,39,0.00,CLR,,0.00,WeatherDisplay:10.37,2013-01-18 18:40:00,
2013-01-18 13:45:00,26.4,5.3,30.35,West,279,4.2,6.9,40,0.00,CLR,,0.00,WeatherDisplay:10.37,2013-01-18 18:45:00,
2013-01-18 13:51:00,26.9,5.2,30.35,West,259,7.4,11.5,39,0.00,CLR,,0.00,WeatherDisplay:10.37,2013-01-18 18:51:00,
2013-01-18 13:56:00,26.9,4.6,30.35,WNW,289,2.1,3.5,38,0.00,CLR,,0.00,WeatherDisplay:10.37,2013-01-18 18:56:00,
2013-01-18 14:01:00,27.2,4.9,30.35,NW,310,5.5,9.2,38,0.00,CLR,,0.00,WeatherDisplay:10.37,2013-01-18 19:01:00,
2013-01-18 14:06:00,27.3,3.8,30.35,West,263,8.9,12.7,36,0.00,CLR,,0.00,WeatherDisplay:10.37,2013-01-18 19:06:00,
2013-01-18 14:12:00,27.6,4.7,30.35,NW,305,1.6,5.8,37,0.00,CLR,,0.00,WeatherDisplay:10.37,2013-01-18 19:12:00,
2013-01-18 14:17:00,27.6,4.7,30.35,NW,315,6.7,10.4,37,0.01,RA,,0.01,WeatherDisplay:10.37,2013-01-18 19:17:00,
2013-01-18 14:22:00,27.5,5.7,30.35,SW,219,2.3,6.9,39,0.01,RA,,0.01,WeatherDisplay:10.37,2013-01-18 19:22:00,
2013-01-18 14:27:00,28.1,5.7,30.35,WSW,240,1.7,4.0,38,0.01,CLR,,0.01,WeatherDisplay:10.37,2013-01-18 19:27:00,
2013-01-18 14:32:00,27.9,3.7,30.35,West,263,6.9,13.8,35,0.01,,,0.01,WeatherDisplay:10.37,2013-01-18 19:32:00,
2013-01-18 14:37:00,27.3,5.0,30.35,WNW,296,5.4,9.2,38,0.01,,,0.01,WeatherDisplay:10.37,2013-01-18 19:37:00,
2013-01-18 14:43:00,27.5,4.0,30.35,WSW,254,0.6,1.1,36,0.01,,,0.01,WeatherDisplay:10.37,2013-01-18 19:43:00,
2013-01-18 14:48:00,28.2,4.6,30.35,WSW,254,0.2,1.1,36,0.01,,,0.01,WeatherDisplay:10.37,2013-01-18 19:48:00,
2013-01-18 14:53:00,28.4,6.0,30.35,WNW,288,2.9,3.5,38,0.01,,,0.01,WeatherDisplay:10.37,2013-01-18 19:53:00,
2013-01-18 14:58:00,28.7,6.8,30.35,NW,320,4.8,6.0,39,0.01,,,0.01,WeatherDisplay:10.37,2013-01-18 19:58:00,
2013-01-18 15:03:00,28.2,5.2,30.35,West,274,1.3,3.5,37,0.01,,,0.01,WeatherDisplay:10.37,2013-01-18 20:03:00,
2013-01-18 15:08:00,28.1,5.1,30.35,NW,321,4.7,6.9,37,0.01,,,0.01,WeatherDisplay:10.37,2013-01-18 20:08:00,
2013-01-18 15:13:00,27.5,5.2,30.35,West,262,3.5,10.4,38,0.00,CLR,,0.01,WeatherDisplay:10.37,2013-01-18 20:13:00,
2013-01-18 15:19:00,27.0,5.8,30.35,West,271,2.2,3.5,40,0.00,CLR,,0.01,WeatherDisplay:10.37,2013-01-18 20:19:00,
2013-01-18 15:24:00,26.7,4.5,30.35,NW,321,1.5,6.0,38,0.00,CLR,,0.01,WeatherDisplay:10.37,2013-01-18 20:24:00,
2013-01-18 15:29:00,26.4,4.2,30.35,NW,313,3.4,9.2,38,0.00,CLR,,0.01,WeatherDisplay:10.37,2013-01-18 20:29:00,
2013-01-18 15:34:00,26.0,5.5,30.35,North,350,3.6,5.8,41,0.00,CLR,,0.01,WeatherDisplay:10.37,2013-01-18 20:34:00,
2013-01-18 15:40:00,25.7,5.2,30.35,West,276,4.5,10.4,41,0.00,CLR,,0.01,WeatherDisplay:10.37,2013-01-18 20:40:00,
2013-01-18 15:45:00,25.3,3.8,30.35,WNW,296,4.1,5.8,39,0.00,CLR,,0.01,WeatherDisplay:10.37,2013-01-18 20:45:00,
2013-01-18 15:50:00,25.1,5.2,30.35,WNW,286,2.6,3.5,42,0.00,CLR,,0.01,WeatherDisplay:10.37,2013-01-18 20:50:00,
2013-01-18 15:55:00,25.1,5.7,30.36,West,277,1.4,3.5,43,0.00,CLR,,0.01,WeatherDisplay:10.37,2013-01-18 20:55:00,
2013-01-18 16:00:00,25.0,5.1,30.36,WSW,252,1.0,2.3,42,0.00,CLR,,0.01,WeatherDisplay:10.37,2013-01-18 21:00:00,
2013-01-18 16:05:00,24.8,4.9,30.36,WSW,258,4.3,5.8,42,0.00,CLR,,0.01,WeatherDisplay:10.37,2013-01-18 21:05:00,
2013-01-18 16:11:00,24.7,5.3,30.36,NW,305,3.9,6.9,43,0.00,CLR,,0.01,WeatherDisplay:10.37,2013-01-18 21:11:00,
2013-01-18 16:16:00,24.7,5.3,30.36,West,270,1.9,4.0,43,0.00,CLR,,0.01,WeatherDisplay:10.37,2013-01-18 21:16:00,
2013-01-18 16:21:00,24.5,5.7,30.36,WSW,240,3.4,10.4,44,0.00,CLR,,0.01,WeatherDisplay:10.37,2013-01-18 21:21:00,
2013-01-18 16:27:00,24.5,5.7,30.37,West,277,0.0,3.5,44,0.00,CLR,,0.01,WeatherDisplay:10.37,2013-01-18 21:27:00,
2013-01-18 16:32:00,24.2,4.9,30.36,WNW,296,1.6,2.3,43,0.00,CLR,,0.01,WeatherDisplay:10.37,2013-01-18 21:32:00,
2013-01-18 16:37:00,24.1,5.3,30.36,SW,229,1.4,3.5,44,0.00,CLR,,0.01,WeatherDisplay:10.37,2013-01-18 21:37:00,
2013-01-18 16:42:00,23.9,4.6,30.36,West,259,1.3,3.5,43,0.00,CLR,,0.01,WeatherDisplay:10.37,2013-01-18 21:42:00,
2013-01-18 16:47:00,23.8,5.0,30.36,West,259,0.3,2.0,44,0.00,CLR,,0.01,WeatherDisplay:10.37,2013-01-18 21:47:00,
2013-01-18 16:54:00,23.6,4.8,30.36,WSW,244,2.1,2.3,44,0.00,CLR,,0.01,WeatherDisplay:10.37,2013-01-18 21:54:00,
2013-01-18 16:59:00,23.5,5.2,30.37,West,259,1.2,2.3,45,0.00,RA,,0.01,WeatherDisplay:10.37,2013-01-18 21:59:00,
2013-01-18 17:04:00,23.3,5.1,30.37,WSW,255,0.1,1.1,45,0.00,RA,,0.01,WeatherDisplay:10.37,2013-01-18 22:04:00,
2013-01-18 17:10:00,23.2,4.5,30.37,WSW,255,0.8,2.3,44,0.00,CLR,,0.01,WeatherDisplay:10.37,2013-01-18 22:10:00,
2013-01-18 17:15:00,23.2,5.9,30.37,West,275,1.2,3.5,47,0.00,CLR,,0.01,WeatherDisplay:10.37,2013-01-18 22:15:00,
2013-01-18 17:20:00,23.0,5.7,30.37,West,275,0.4,2.3,47,0.00,CLR,,0.01,WeatherDisplay:10.37,2013-01-18 22:20:00,
2013-01-18 17:25:00,22.9,5.2,30.38,WSW,248,1.4,3.5,46,0.00,CLR,,0.01,WeatherDisplay:10.37,2013-01-18 22:25:00,
2013-01-18 17:30:00,22.7,6.4,30.38,WSW,248,0.1,2.3,49,0.00,CLR,,0.01,WeatherDisplay:10.37,2013-01-18 22:30:00,
2013-01-18 17:35:00,22.7,6.4,30.39,West,263,0.8,2.3,49,0.00,CLR,,0.01,WeatherDisplay:10.37,2013-01-18 22:35:00,
2013-01-18 17:41:00,22.5,6.2,30.39,SW,215,1.5,5.8,49,0.00,CLR,,0.01,WeatherDisplay:10.37,2013-01-18 22:41:00,
2013-01-18 17:46:00,22.5,5.7,30.39,SW,232,0.9,2.3,48,0.00,CLR,,0.01,WeatherDisplay:10.37,2013-01-18 22:46:00,
2013-01-18 17:51:00,22.5,6.2,30.39,SW,232,0.3,1.1,49,0.00,CLR,,0.01,WeatherDisplay:10.37,2013-01-18 22:51:00,
2013-01-18 17:56:00,22.4,7.0,30.39,SW,232,0.0,0.0,51,0.00,CLR,,0.01,WeatherDisplay:10.37,2013-01-18 22:56:00,
2013-01-18 18:02:00,22.2,7.2,30.39,SW,232,0.6,3.5,52,0.00,CLR,,0.01,WeatherDisplay:10.37,2013-01-18 23:02:00,
2013-01-18 18:07:00,22.1,7.6,30.39,SW,233,0.7,2.3,53,0.00,CLR,,0.01,WeatherDisplay:10.37,2013-01-18 23:07:00,
2013-01-18 18:12:00,21.9,7.4,30.39,SW,233,0.0,1.1,53,0.00,CLR,,0.01,WeatherDisplay:10.37,2013-01-18 23:12:00,
2013-01-18 18:17:00,21.8,7.7,30.39,SW,233,0.4,3.0,54,0.00,CLR,,0.01,WeatherDisplay:10.37,2013-01-18 23:17:00,
2013-01-18 18:23:00,21.6,7.1,30.39,SW,233,0.0,0.0,53,0.00,CLR,,0.01,WeatherDisplay:10.37,2013-01-18 23:23:00,
2013-01-18 18:28:00,21.4,7.3,30.40,SW,233,0.0,1.1,54,0.00,CLR,,0.01,WeatherDisplay:10.37,2013-01-18 23:28:00,
2013-01-18 18:33:00,21.3,7.6,30.40,SW,233,0.8,2.0,55,0.00,CLR,,0.01,WeatherDisplay:10.37,2013-01-18 23:33:00,
2013-01-18 18:38:00,21.3,7.2,30.40,SW,219,0.1,2.3,54,0.00,CLR,,0.01,WeatherDisplay:10.37,2013-01-18 23:38:00,
2013-01-18 18:44:00,21.3,7.2,30.40,SW,219,0.8,1.1,54,0.00,CLR,,0.01,WeatherDisplay:10.37,2013-01-18 23:44:00,
2013-01-18 18:49:00,21.1,7.8,30.40,SW,219,0.0,0.0,56,0.00,CLR,,0.01,WeatherDisplay:10.37,2013-01-18 23:49:00,
2013-01-18 18:54:00,21.0,8.5,30.40,SW,219,0.0,0.0,58,0.00,CLR,,0.01,WeatherDisplay:10.37,2013-01-18 23:54:00,
2013-01-18 18:59:00,21.0,8.5,30.39,SW,219,0.0,0.0,58,0.00,CLR,,0.01,WeatherDisplay:10.37,2013-01-18 23:59:00,
2013-01-18 19:04:00,20.6,7.8,30.40,SW,219,0.0,0.0,57,0.00,CLR,,0.01,WeatherDisplay:10.37,2013-01-19 00:04:00,
2013-01-18 19:09:00,20.5,8.0,30.40,SW,219,0.0,0.0,58,0.00,CLR,,0.01,WeatherDisplay:10.37,2013-01-19 00:09:00,
2013-01-18 19:15:00,20.3,8.2,30.39,SW,219,0.0,0.0,59,0.00,CLR,,0.01,WeatherDisplay:10.37,2013-01-19 00:15:00,
2013-01-18 19:20:00,20.2,8.5,30.40,SW,219,0.0,0.0,60,0.00,CLR,,0.01,WeatherDisplay:10.37,2013-01-19 00:20:00,
2013-01-18 19:25:00,20.0,9.4,30.39,SW,219,0.0,0.0,63,0.00,CLR,,0.01,WeatherDisplay:10.37,2013-01-19 00:25:00,
2013-01-18 19:30:00,19.7,8.8,30.39,SW,219,0.0,0.0,62,0.00,CLR,,0.01,WeatherDisplay:10.37,2013-01-19 00:30:00,
2013-01-18 19:36:00,19.2,9.0,30.39,SW,219,0.0,0.0,64,0.00,CLR,,0.01,WeatherDisplay:10.37,2013-01-19 00:36:00,
2013-01-18 19:41:00,18.9,8.7,30.39,SW,219,0.0,0.0,64,0.00,CLR,,0.01,WeatherDisplay:10.37,2013-01-19 00:41:00,
2013-01-18 19:46:00,18.8,8.6,30.39,SW,219,0.0,0.0,64,0.00,CLR,,0.01,WeatherDisplay:10.37,2013-01-19 00:46:00,
2013-01-18 19:51:00,18.6,8.8,30.39,SW,219,0.0,0.0,65,0.00,CLR,,0.01,WeatherDisplay:10.37,2013-01-19 00:51:00,
2013-01-18 19:56:00,18.3,8.5,30.38,SW,219,0.5,2.3,65,0.00,CLR,,0.01,WeatherDisplay:10.37,2013-01-19 00:56:00,
2013-01-18 20:01:00,18.1,8.6,30.39,SW,231,0.7,2.0,66,0.00,CLR,,0.01,WeatherDisplay:10.37,2013-01-19 01:01:00,
2013-01-18 20:07:00,18.0,8.9,30.39,WSW,251,0.0,0.0,67,0.00,CLR,,0.01,WeatherDisplay:10.37,2013-01-19 01:07:00,
2013-01-18 20:12:00,18.0,8.5,30.39,WSW,251,0.0,0.0,66,0.00,CLR,,0.01,WeatherDisplay:10.37,2013-01-19 01:12:00,
2013-01-18 20:17:00,18.0,8.9,30.39,WSW,251,0.0,0.0,67,0.00,CLR,,0.01,WeatherDisplay:10.37,2013-01-19 01:17:00,
2013-01-18 20:22:00,17.8,8.7,30.39,WSW,251,0.0,0.0,67,0.00,CLR,,0.01,WeatherDisplay:10.37,2013-01-19 01:22:00,
2013-01-18 20:27:00,17.3,7.9,30.39,WSW,251,0.0,0.0,66,0.00,CLR,,0.01,WeatherDisplay:10.37,2013-01-19 01:27:00,
2013-01-18 20:32:00,17.2,7.8,30.39,WSW,251,0.0,0.0,66,0.00,CLR,,0.01,WeatherDisplay:10.37,2013-01-19 01:32:00,
2013-01-18 20:38:00,17.0,8.3,30.39,WSW,251,0.0,0.0,68,0.00,CLR,,0.01,WeatherDisplay:10.37,2013-01-19 01:38:00,
2013-01-18 20:43:00,17.0,8.3,30.39,WSW,251,0.0,0.0,68,0.00,CLR,,0.01,WeatherDisplay:10.37,2013-01-19 01:43:00,
2013-01-18 20:48:00,17.0,8.3,30.39,WSW,251,0.0,0.0,68,0.00,CLR,,0.01,WeatherDisplay:10.37,2013-01-19 01:48:00,
2013-01-18 20:53:00,16.9,7.8,30.39,WSW,251,0.0,0.0,67,0.00,CLR,,0.01,WeatherDisplay:10.37,2013-01-19 01:53:00,
2013-01-18 20:58:00,16.7,8.0,30.39,WSW,251,0.0,0.0,68,0.00,CLR,,0.01,WeatherDisplay:10.37,2013-01-19 01:58:00,
2013-01-18 21:03:00,16.5,7.8,30.38,WSW,251,0.0,0.0,68,0.00,CLR,,0.01,WeatherDisplay:10.37,2013-01-19 02:03:00,
2013-01-18 21:09:00,16.5,8.1,30.38,WSW,251,0.0,0.0,69,0.00,CLR,,0.01,WeatherDisplay:10.37,2013-01-19 02:09:00,
2013-01-18 21:14:00,16.5,8.4,30.37,WSW,251,0.0,2.0,70,0.00,CLR,,0.01,WeatherDisplay:10.37,2013-01-19 02:14:00,
2013-01-18 21:19:00,16.4,8.6,30.36,WSW,251,0.0,0.0,71,0.00,CLR,,0.01,WeatherDisplay:10.37,2013-01-19 02:19:00,
2013-01-18 21:24:00,16.4,8.6,30.37,WSW,251,0.0,0.0,71,0.00,CLR,,0.01,WeatherDisplay:10.37,2013-01-19 02:24:00,
2013-01-18 21:30:00,16.2,8.8,30.37,WSW,251,0.0,0.0,72,0.00,CLR,,0.01,WeatherDisplay:10.37,2013-01-19 02:30:00,
2013-01-18 21:35:00,16.1,9.0,30.36,WSW,251,0.0,0.0,73,0.00,CLR,,0.01,WeatherDisplay:10.37,2013-01-19 02:35:00,
2013-01-18 21:40:00,15.9,8.8,30.37,WSW,251,0.0,0.0,73,0.00,CLR,,0.01,WeatherDisplay:10.37,2013-01-19 02:40:00,
2013-01-18 21:45:00,15.9,8.8,30.37,WSW,251,0.8,2.3,73,0.00,CLR,,0.01,WeatherDisplay:10.37,2013-01-19 02:45:00,
2013-01-18 21:50:00,15.6,8.5,30.37,WSW,251,0.0,1.1,73,0.00,CLR,,0.01,WeatherDisplay:10.37,2013-01-19 02:50:00,
2013-01-18 21:55:00,15.6,8.5,30.36,WSW,251,0.0,1.1,73,0.00,CLR,,0.01,WeatherDisplay:10.37,2013-01-19 02:55:00,
2013-01-18 22:01:00,15.6,8.5,30.36,WSW,251,0.0,0.0,73,0.00,CLR,,0.01,WeatherDisplay:10.37,2013-01-19 03:01:00,
2013-01-18 22:06:00,15.7,8.6,30.36,WSW,251,0.0,0.0,73,0.00,CLR,,0.01,WeatherDisplay:10.37,2013-01-19 03:06:00,
2013-01-18 22:12:00,16.1,8.3,30.36,WSW,251,0.0,1.1,71,0.00,CLR,,0.01,WeatherDisplay:10.37,2013-01-19 03:12:00,
2013-01-18 22:17:00,16.5,8.7,30.36,WSW,250,0.5,2.3,71,0.00,CLR,,0.01,WeatherDisplay:10.37,2013-01-19 03:17:00,
2013-01-18 22:22:00,16.9,9.1,30.36,WSW,251,0.0,0.0,71,0.00,CLR,,0.01,WeatherDisplay:10.37,2013-01-19 03:22:00,
2013-01-18 22:27:00,17.0,9.2,30.36,WSW,250,0.0,0.0,71,0.00,CLR,,0.01,WeatherDisplay:10.37,2013-01-19 03:27:00,
2013-01-18 22:32:00,16.9,9.1,30.36,WSW,250,0.4,2.3,71,0.00,CLR,,0.01,WeatherDisplay:10.37,2013-01-19 03:32:00,
2013-01-18 22:37:00,16.9,9.1,30.36,WSW,250,0.0,0.0,71,0.00,CLR,,0.01,WeatherDisplay:10.37,2013-01-19 03:37:00,
2013-01-18 22:43:00,16.9,8.8,30.36,WSW,251,0.0,0.0,70,0.00,CLR,,0.01,WeatherDisplay:10.37,2013-01-19 03:43:00,
2013-01-18 22:48:00,17.0,9.2,30.36,WSW,251,0.0,0.0,71,0.00,CLR,,0.01,WeatherDisplay:10.37,2013-01-19 03:48:00,
2013-01-18 22:53:00,16.9,8.5,30.35,WSW,251,1.3,2.3,69,0.00,CLR,,0.01,WeatherDisplay:10.37,2013-01-19 03:53:00,
2013-01-18 22:59:00,16.9,8.8,30.34,WSW,250,0.0,1.1,70,0.00,CLR,,0.01,WeatherDisplay:10.37,2013-01-19 03:59:00,
2013-01-18 23:04:00,16.9,8.8,30.34,WSW,251,0.0,2.3,70,0.00,CLR,,0.01,WeatherDisplay:10.37,2013-01-19 04:04:00,
2013-01-18 23:09:00,17.0,9.2,30.34,WSW,251,0.0,0.0,71,0.00,CLR,,0.01,WeatherDisplay:10.37,2013-01-19 04:09:00,
2013-01-18 23:14:00,17.5,9.1,30.34,WNW,288,0.0,2.3,69,0.00,CLR,,0.01,WeatherDisplay:10.37,2013-01-19 04:14:00,
2013-01-18 23:20:00,18.1,9.3,30.33,WNW,282,0.4,1.0,68,0.00,CLR,,0.01,WeatherDisplay:10.37,2013-01-19 04:20:00,
2013-01-18 23:25:00,18.6,9.8,30.33,WNW,282,0.5,1.1,68,0.00,CLR,,0.01,WeatherDisplay:10.37,2013-01-19 04:25:00,
2013-01-18 23:30:00,19.4,9.5,30.33,SSE,164,1.5,4.0,65,0.00,CLR,,0.01,WeatherDisplay:10.37,2013-01-19 04:30:00,
2013-01-18 23:35:00,20.3,9.3,30.32,SSW,196,3.0,4.6,62,0.00,CLR,,0.01,WeatherDisplay:10.37,2013-01-19 04:35:00,
2013-01-18 23:41:00,20.8,9.8,30.32,South,191,0.0,2.3,62,0.00,CLR,,0.01,WeatherDisplay:10.37,2013-01-19 04:41:00,
2013-01-18 23:46:00,21.1,9.7,30.31,SW,216,1.0,2.0,61,0.00,CLR,,0.01,WeatherDisplay:10.37,2013-01-19 04:46:00,
2013-01-18 23:51:00,21.4,10.0,30.31,SW,228,0.1,1.1,61,0.00,CLR,,0.01,WeatherDisplay:10.37,2013-01-19 04:51:00,
2013-01-18 23:56:00,21.8,10.4,30.31,WSW,254,0.3,1.1,61,0.00,CLR,,0.01,WeatherDisplay:10.37,2013-01-19 04:56:00,